When you browse on this site, cookies collect data to enhance your experience and personalize the content and advertising you see.
Visit our Privacy Policy to learn more. By continuing to use the site, you agree to this use of cookies and data.
  • In Latvia
  • List of Countries
  • For 7 days
  • Water Temperature
  • Weather Map
  • Weather Widgets
  • user-avatar
    Login

    Hourly Weather Gyor

    Today, 19 September, Thursday

    Time Temperature Precipitation Wind Pressure Humidity
    00:00 +10°C° 0 mm 1 mps 757 mmHg 57%
    01:00 +10°C° 0 mm 1 mps 757 mmHg 61%
    02:00 +10°C° 0 mm 1 mps 757 mmHg 63%
    03:00 +9°C° 0 mm 1 mps 757 mmHg 65%
    04:00 +9°C° 0 mm 1 mps 757 mmHg 68%
    05:00 +10°C° 0 mm 1 mps 757 mmHg 66%
    06:00 +10°C° 0 mm 2 mps 757 mmHg 64%
    07:00 +10°C° 0 mm 2 mps 758 mmHg 62%
    08:00 +12°C° 0 mm 3 mps 758 mmHg 55%
    09:00 +14°C° 0 mm 4 mps 758 mmHg 48%
    10:00 +16°C° 0 mm 5 mps 758 mmHg 41%
    11:00 +16°C° 0 mm 5 mps 758 mmHg 39%
    12:00 +17°C° 0 mm 5 mps 758 mmHg 36%
    13:00 +19°C° 0 mm 5 mps 758 mmHg 34%
    14:00 +17°C° 0 mm 6 mps 758 mmHg 34%
    15:00 +17°C° 0 mm 6 mps 758 mmHg 34%
    16:00 +17°C° 0 mm 6 mps 758 mmHg 33%
    17:00 +15°C° 0 mm 5 mps 758 mmHg 39%
    18:00 +13°C° 0 mm 4 mps 758 mmHg 46%
    19:00 +11°C° 0 mm 3 mps 758 mmHg 52%
    20:00 +11°C° 0 mm 3 mps 759 mmHg 56%
    21:00 +10°C° 0 mm 3 mps 759 mmHg 60%
    22:00 +9°C° 0 mm 3 mps 760 mmHg 63%
    23:00 +9°C° 0 mm 3 mps 760 mmHg 67%

    Tomorrow, 20 September, Friday

    Time Temperature Precipitation Wind Pressure Humidity
    00:00 +8°C° 0 mm 3 mps 760 mmHg 70%
    01:00 +8°C° 0 mm 3 mps 759 mmHg 73%
    02:00 +7°C° 0 mm 3 mps 759 mmHg 74%
    03:00 +7°C° 0 mm 3 mps 759 mmHg 76%
    04:00 +7°C° 0 mm 3 mps 759 mmHg 77%
    05:00 +7°C° 0 mm 3 mps 760 mmHg 74%
    06:00 +8°C° 0 mm 3 mps 760 mmHg 71%
    07:00 +9°C° 0 mm 3 mps 760 mmHg 68%
    08:00 +11°C° 0 mm 3 mps 760 mmHg 58%
    09:00 +13°C° 0 mm 3 mps 760 mmHg 49%
    10:00 +17°C° 0 mm 3 mps 760 mmHg 39%
    11:00 +18°C° 0 mm 3 mps 760 mmHg 36%
    12:00 +18°C° 0 mm 3 mps 759 mmHg 33%
    13:00 +19°C° 0 mm 3 mps 759 mmHg 29%
    14:00 +19°C° 0 mm 2 mps 759 mmHg 29%
    15:00 +19°C° 0 mm 2 mps 758 mmHg 29%
    16:00 +19°C° 0 mm 2 mps 758 mmHg 29%
    17:00 +17°C° 0 mm 2 mps 758 mmHg 35%
    18:00 +15°C° 0 mm 1 mps 758 mmHg 40%
    19:00 +13°C° 0 mm 1 mps 759 mmHg 46%
    20:00 +12°C° 0 mm 1 mps 759 mmHg 49%
    21:00 +11°C° 0 mm 1 mps 759 mmHg 51%
    22:00 +10°C° 0 mm 0 mps 759 mmHg 54%
    23:00 +10°C° 0 mm 1 mps 759 mmHg 54%

    Day after tomorrow, 21 September, Saturday

    Time Temperature Precipitation Wind Pressure Humidity
    00:00 +10°C° 0 mm 1 mps 759 mmHg 55%
    01:00 +10°C° 0 mm 1 mps 759 mmHg 56%
    02:00 +10°C° 0 mm 1 mps 759 mmHg 57%
    03:00 +9°C° 0 mm 1 mps 759 mmHg 57%
    04:00 +9°C° 0 mm 1 mps 759 mmHg 57%
    05:00 +10°C° 0 mm 1 mps 759 mmHg 55%
    06:00 +9°C° 0 mm 2 mps 759 mmHg 53%
    07:00 +10°C° 0 mm 2 mps 758 mmHg 51%
    08:00 +14°C° 0 mm 2 mps 759 mmHg 44%
    09:00 +16°C° 0 mm 3 mps 759 mmHg 37%
    10:00 +19°C° 0 mm 3 mps 759 mmHg 30%
    11:00 +20°C° 0 mm 4 mps 758 mmHg 28%
    12:00 +21°C° 0 mm 4 mps 758 mmHg 26%
    13:00 +22°C° 0 mm 5 mps 757 mmHg 24%
    14:00 +22°C° 0 mm 5 mps 757 mmHg 25%
    15:00 +22°C° 0 mm 4 mps 756 mmHg 25%
    16:00 +22°C° 0 mm 4 mps 756 mmHg 26%
    17:00 +19°C° 0 mm 4 mps 756 mmHg 30%
    18:00 +17°C° 0 mm 4 mps 756 mmHg 35%
    19:00 +14°C° 0 mm 4 mps 755 mmHg 39%
    20:00 +13°C° 0 mm 4 mps 755 mmHg 41%
    21:00 +13°C° 0 mm 3 mps 755 mmHg 42%
    22:00 +12°C° 0 mm 3 mps 755 mmHg 43%
    23:00 +12°C° 0 mm 4 mps 755 mmHg 44%

    22 September, Sunday

    Time Temperature Precipitation Wind Pressure Humidity
    00:00 +11°C° 0 mm 4 mps 755 mmHg 45%
    01:00 +11°C° 0 mm 4 mps 755 mmHg 45%
    02:00 +11°C° 0 mm 4 mps 754 mmHg 45%
    03:00 +10°C° 0 mm 4 mps 754 mmHg 45%
    04:00 +10°C° 0 mm 4 mps 754 mmHg 45%
    05:00 +11°C° 0 mm 4 mps 754 mmHg 44%
    06:00 +11°C° 0 mm 4 mps 753 mmHg 42%
    07:00 +12°C° 0 mm 5 mps 753 mmHg 41%
    08:00 +14°C° 0 mm 5 mps 753 mmHg 36%
    09:00 +17°C° 0 mm 6 mps 753 mmHg 31%
    10:00 +21°C° 0 mm 7 mps 752 mmHg 26%
    11:00 +22°C° 0 mm 7 mps 752 mmHg 27%
    12:00 +23°C° 0 mm 7 mps 751 mmHg 29%
    13:00 +26°C° 0 mm 7 mps 751 mmHg 30%
    14:00 +26°C° 0 mm 7 mps 750 mmHg 33%
    15:00 +26°C° 0 mm 6 mps 750 mmHg 36%
    16:00 +26°C° 0 mm 6 mps 749 mmHg 39%
    17:00 +25°C° 0 mm 5 mps 749 mmHg 44%
    18:00 +22°C° 0 mm 5 mps 749 mmHg 49%
    19:00 +21°C° 0 mm 5 mps 748 mmHg 53%
    20:00 +20°C° 0 mm 5 mps 748 mmHg 55%
    21:00 +20°C° 0 mm 5 mps 748 mmHg 57%
    22:00 +19°C° 0 mm 5 mps 748 mmHg 59%
    23:00 +19°C° 0 mm 4 mps 748 mmHg 61%

    23 September, Monday

    Time Temperature Precipitation Wind Pressure Humidity
    00:00 +19°C° 0 mm 4 mps 747 mmHg 63%
    01:00 +19°C° 0 mm 4 mps 747 mmHg 65%
    02:00 +18°C° 0 mm 4 mps 747 mmHg 66%
    03:00 +18°C° 0 mm 3 mps 747 mmHg 67%
    04:00 +18°C° 0 mm 3 mps 747 mmHg 68%
    05:00 +18°C° 0 mm 3 mps 747 mmHg 70%
    06:00 +18°C° 0 mm 2 mps 747 mmHg 72%
    07:00 +18°C° 0 mm 2 mps 747 mmHg 74%
    08:00 +19°C° 0 mm 4 mps 747 mmHg 68%
    09:00 +20°C° 0 mm 6 mps 747 mmHg 63%
    10:00 +21°C° 0 mm 7 mps 748 mmHg 57%
    11:00 +20°C° 0 mm 8 mps 748 mmHg 61%
    12:00 +18°C° 0 mm 8 mps 747 mmHg 65%
    13:00 +17°C° 0 mm 8 mps 747 mmHg 68%
    14:00 +17°C° 0 mm 8 mps 747 mmHg 66%
    15:00 +18°C° 0 mm 8 mps 748 mmHg 65%
    16:00 +18°C° 0 mm 7 mps 748 mmHg 63%
    17:00 +17°C° 0 mm 6 mps 748 mmHg 65%
    18:00 +17°C° 0 mm 5 mps 748 mmHg 67%
    19:00 +17°C° 0 mm 4 mps 748 mmHg 70%
    20:00 +15°C° 0 mm 4 mps 749 mmHg 72%
    21:00 +15°C° 0 mm 4 mps 749 mmHg 74%
    22:00 +14°C° 0 mm 3 mps 749 mmHg 77%
    23:00 +14°C° 0 mm 3 mps 749 mmHg 78%

    24 September, Tuesday

    Time Temperature Precipitation Wind Pressure Humidity
    00:00 +14°C° 0 mm 3 mps 749 mmHg 79%
    01:00 +13°C° 0 mm 3 mps 749 mmHg 80%
    02:00 +13°C° 0 mm 3 mps 749 mmHg 81%
    03:00 +12°C° 0 mm 3 mps 749 mmHg 81%
    04:00 +12°C° 0 mm 3 mps 750 mmHg 82%
    05:00 +13°C° 0 mm 3 mps 750 mmHg 79%
    06:00 +13°C° 0 mm 3 mps 750 mmHg 75%
    07:00 +14°C° 0 mm 3 mps 750 mmHg 72%
    08:00 +15°C° 0 mm 4 mps 750 mmHg 67%
    09:00 +17°C° 0 mm 4 mps 750 mmHg 62%
    10:00 +19°C° 0 mm 5 mps 751 mmHg 57%
    11:00 +19°C° 0 mm 6 mps 750 mmHg 55%
    12:00 +20°C° 0 mm 6 mps 750 mmHg 54%
    13:00 +20°C° 0 mm 7 mps 750 mmHg 52%
    14:00 +19°C° 0 mm 5 mps 750 mmHg 57%
    15:00 +18°C° 0 mm 4 mps 750 mmHg 63%
    16:00 +17°C° 0 mm 3 mps 750 mmHg 68%
    17:00 +17°C° 0 mm 3 mps 750 mmHg 70%
    18:00 +16°C° 0 mm 2 mps 750 mmHg 72%
    19:00 +16°C° 0 mm 2 mps 750 mmHg 73%
    20:00 +15°C° 0 mm 2 mps 750 mmHg 75%
    21:00 +15°C° 0 mm 2 mps 750 mmHg 76%
    22:00 +14°C° 0 mm 2 mps 750 mmHg 78%
    23:00 +14°C° 0 mm 2 mps 750 mmHg 75%
    Show more